Location: Gombori
(14.9797°N, 2.9419°W)
Time: 17:40:47
(UTC+00:00)

DMSP B5D2-2 - Pass Details

Date: 29 July 2021
Orbit: 790 x 805 km, 98.3° (Epoch: 21 September)

Event Time Altitude Azimuth Distance (km) Brightness Sun altitude
Rises 19:11:12 0° 8° (N) 3,281 7.5 -7.3°
Reaches altitude 10° 19:13:31 10° 6° (N) 2,353 6.7 -7.8°
Maximum altitude 19:18:41 70° 283° (WNW) 841 4.5 -9.0°
Drops below altitude 10° 19:23:52 10° 200° (SSW) 2,358 6.5 -10.2°
Sets 19:26:12 0° 198° (SSW) 3,290 7.2 -10.7°
